TimeBST,TemperatureF,Dew PointF,Humidity,Sea Level PressureIn,VisibilityMPH,Wind Direction,Wind SpeedMPH,Gust SpeedMPH,PrecipitationIn,Events,Conditions,WindDirDegrees,DateUTC
12:20 AM,55.4,53.6,94,29.92,3.1,North,5.8,-,N/A,,Mostly Cloudy,10,2012-10-08 23:20:00
12:50 AM,55,55,98,,,North,2.3,,,,,10,2012-10-08 23:50:00
12:50 AM,55.4,53.6,94,29.92,3.1,North,3.5,-,N/A,,Mostly Cloudy,350,2012-10-08 23:50:00
1:20 AM,55.4,53.6,94,29.92,2.5,North,3.5,-,N/A,,Light Drizzle,350,2012-10-09 00:20:00
1:50 AM,53.6,53.6,100,29.92,2.5,North,4.6,-,N/A,,Light Drizzle,360,2012-10-09 00:50:00
2:20 AM,53.6,53.6,100,29.92,2.2,North,3.5,-,N/A,,Light Drizzle,360,2012-10-09 01:20:00
2:50 AM,53.6,53.6,100,29.95,2.2,North,2.3,-,N/A,,Light Drizzle,360,2012-10-09 01:50:00
3:50 AM,54,54,99,,,East,4.6,,,,,80,2012-10-09 02:50:00
5:20 AM,53.6,53.6,100,29.95,2.2,NNE,4.6,-,N/A,,Light Drizzle,30,2012-10-09 04:20:00
5:50 AM,53.6,53.6,100,29.95,2.2,NE,3.5,-,N/A,,Light Drizzle,50,2012-10-09 04:50:00
6:20 AM,53.6,53.6,100,29.95,1.6,NE,3.5,-,N/A,,Light Drizzle,50,2012-10-09 05:20:00
6:50 AM,53,53,100,,,NE,3.5,,,,,40,2012-10-09 05:50:00
6:50 AM,53.6,53.6,100,29.95,1.6,NNE,4.6,-,N/A,,Light Drizzle,30,2012-10-09 05:50:00
7:20 AM,53.6,53.6,100,29.95,1.6,NNE,3.5,-,N/A,,Mostly Cloudy,30,2012-10-09 06:20:00
7:50 AM,53.6,53.6,100,29.95,1.6,NE,5.8,-,N/A,,Light Drizzle,40,2012-10-09 06:50:00
8:20 AM,53.6,51.8,94,29.95,1.6,NE,5.8,-,N/A,,Light Drizzle,40,2012-10-09 07:20:00
9:20 AM,53.6,51.8,94,29.98,1.6,ENE,5.8,-,N/A,,Light Drizzle,60,2012-10-09 08:20:00
9:50 AM,53,53,100,,,ENE,5.8,,,,,70,2012-10-09 08:50:00
9:50 AM,53.6,51.8,94,29.98,1.6,NE,5.8,-,N/A,,Light Drizzle,50,2012-10-09 08:50:00
10:20 AM,53.6,51.8,94,29.98,1.9,NE,4.6,-,N/A,,Light Drizzle,50,2012-10-09 09:20:00
10:50 AM,53.6,51.8,94,29.98,2.2,NE,5.8,-,N/A,Rain,Light Rain,50,2012-10-09 09:50:00
11:20 AM,53.6,51.8,94,29.98,2.5,East,4.6,-,N/A,Rain,Light Rain,80,2012-10-09 10:20:00
11:50 AM,53.6,51.8,94,29.98,2.2,ENE,5.8,-,N/A,Rain,Light Rain,70,2012-10-09 10:50:00
12:20 PM,53.6,51.8,94,29.98,2.5,Variable,3.5,-,N/A,Rain,Rain,0,2012-10-09 11:20:00
12:50 PM,53,53,99,,,ENE,3.5,,,,,60,2012-10-09 11:50:00
12:50 PM,53.6,51.8,94,29.98,1.9,NE,5.8,-,N/A,Rain,Rain,40,2012-10-09 11:50:00
1:20 PM,51.8,51.8,100,29.98,2.5,NE,5.8,-,N/A,Rain,Rain,40,2012-10-09 12:20:00
1:50 PM,53.6,51.8,94,29.98,2.5,North,4.6,-,N/A,Rain,Rain,10,2012-10-09 12:50:00
2:20 PM,53.6,51.8,94,29.95,2.8,NNE,5.8,-,N/A,Rain,Rain,20,2012-10-09 13:20:00
2:50 PM,53.6,51.8,94,29.95,2.2,NE,5.8,-,N/A,Rain,Rain,40,2012-10-09 13:50:00
3:20 PM,53.6,51.8,94,29.95,2.5,NE,6.9,-,N/A,Rain,Rain,40,2012-10-09 14:20:00
3:50 PM,53,53,100,,,NNE,4.6,,,,,30,2012-10-09 14:50:00
3:50 PM,53.6,51.8,94,29.95,2.5,NNE,5.8,-,N/A,Rain,Light Rain,20,2012-10-09 14:50:00
4:20 PM,53.6,51.8,94,29.95,2.2,North,6.9,-,N/A,Rain,Rain,10,2012-10-09 15:20:00
4:50 PM,53.6,51.8,94,29.95,2.2,North,5.8,-,N/A,Rain,Rain,10,2012-10-09 15:50:00
5:20 PM,53.6,51.8,94,29.95,2.2,NNE,5.8,-,N/A,Rain,Rain,20,2012-10-09 16:20:00
5:50 PM,53.6,51.8,94,29.95,2.2,NNE,4.6,-,N/A,Rain,Rain,20,2012-10-09 16:50:00
6:20 PM,51.8,51.8,100,29.95,2.2,NNE,6.9,-,N/A,Rain,Rain,30,2012-10-09 17:20:00
6:50 PM,53,53,98,,,NE,5.8,,,,,50,2012-10-09 17:50:00
6:50 PM,51.8,51.8,100,29.95,2.2,NNE,6.9,-,N/A,Rain,Rain,20,2012-10-09 17:50:00
7:20 PM,51.8,51.8,100,29.95,2.5,NNE,6.9,-,N/A,Rain,Rain,30,2012-10-09 18:20:00
7:50 PM,53.6,51.8,94,29.95,2.5,NNE,5.8,-,N/A,Rain,Rain,20,2012-10-09 18:50:00
8:20 PM,51.8,51.8,100,29.98,2.5,NNE,4.6,-,N/A,,Light Drizzle,20,2012-10-09 19:20:00
8:50 PM,51.8,51.8,100,29.95,2.5,NNE,4.6,-,N/A,,Light Drizzle,20,2012-10-09 19:50:00
9:20 PM,51.8,51.8,100,29.98,2.8,North,4.6,-,N/A,,Light Drizzle,10,2012-10-09 20:20:00
9:50 PM,53,53,99,,,NNE,3.5,,,,,30,2012-10-09 20:50:00
9:50 PM,51.8,51.8,100,29.98,2.8,North,4.6,-,N/A,,Light Drizzle,360,2012-10-09 20:50:00
10:20 PM,51.8,51.8,100,29.98,3.1,North,4.6,-,N/A,,Mostly Cloudy,360,2012-10-09 21:20:00
10:50 PM,51.8,51.8,100,29.98,3.1,NNE,4.6,-,N/A,,Mostly Cloudy,20,2012-10-09 21:50:00
11:20 PM,51.8,51.8,100,29.98,3.1,NNE,4.6,-,N/A,,Mostly Cloudy,20,2012-10-09 22:20:00
11:50 PM,51.8,51.8,100,29.98,2.5,North,5.8,-,N/A,,Mostly Cloudy,10,2012-10-09 22:50:00